Home   Weather   Khartoum   Past weeks

Flag for Sudan Past Weather in Khartoum, Sudan — Yesterday and Last 2 Weeks

Now
79 °F

Clear.


Feels Like: 80 °F
Forecast: 72 / 97 °F
Wind: 10 mph from Northeast

Location: Khartoum Airport

Current Time: Dec 4, 2016 at 7:10:13 am

Latest Report: Dec 4, 2016 at 6:30 am


Visibility: 10 mi

Pressure: 29.95 "Hg

Humidity: 48%

Dew Point: 57 °F

Location of KhartoumLocation

Past Weather in Khartoum — Graph

°F

Khartoum Temperature Yesterday

Maximum temperature yesterday: 93 °F (at 3:30 pm)
Minimum temperature yesterday: 68 °F (at 7:00 am)
Average temperature yesterday: 81 °F

High & Low Weather Summary for the Past Weeks

 TemperatureHumidityPressure
High99 °F (Nov 19, 3:30 pm)45% (Nov 23, 7:30 am)30.04 "Hg (Nov 23, 7:30 am)
Low66 °F (Nov 26, 7:30 am)10% (Nov 21, 3:00 pm)29.77 "Hg (Nov 20, 4:30 pm)
Average84 °F24%29.88 "Hg
* Reported Nov 19 5:00 am — Dec 4 5:30 am, Khartoum, Weather by CustomWeather, © 2016

Note: Actual official high and low records may vary slightly from our data, if they occured in-between our weather recording intervals... More about our weather records

Advertising

Khartoum Weather History for the Previous 24 Hours

Scroll right to see more
 ConditionsComfort  
Time TempWeatherWind HumidityBarometerVisibility
5:30 am
Sun, Dec 4
79 °FClear.12 mph45%29.92 "Hg10 mi
5:00 am79 °FClear.10 mph45%29.92 "Hg10 mi
4:30 am79 °FClear.9 mph45%29.92 "Hg10 mi
4:00 am79 °FClear.12 mph45%29.92 "Hg10 mi
3:30 am81 °FClear.12 mph42%29.92 "Hg10 mi
3:00 am81 °FClear.13 mph42%N/A10 mi
2:30 am82 °FClear.12 mph40%29.92 "Hg10 mi
2:00 am82 °FClear.12 mph40%29.92 "Hg10 mi
1:30 am82 °FClear.12 mph32%29.92 "Hg10 mi
1:00 am82 °FClear.10 mph28%29.92 "Hg10 mi
12:30 am82 °FClear.12 mph28%29.92 "Hg10 mi
12:00 am82 °FClear.13 mph28%29.92 "Hg10 mi
11:30 pm
Sat, Dec 3
82 °FClear.12 mph30%29.92 "Hg10 mi
11:00 pm84 °FClear.12 mph31%29.92 "Hg10 mi
10:30 pm86 °FClear.13 mph38%29.92 "Hg10 mi
10:00 pm86 °FClear.15 mph38%29.92 "Hg10 mi
9:30 pm86 °FClear.15 mph38%29.92 "Hg10 mi
9:00 pm88 °FClear.12 mph38%29.95 "Hg10 mi
8:00 pm88 °FClear.10 mph35%29.92 "Hg10 mi
7:30 pm88 °FClear.7 mph33%29.92 "Hg10 mi
7:00 pm90 °FClear.12 mph33%29.92 "Hg10 mi
6:30 pm90 °FClear.12 mph31%29.89 "Hg10 mi
6:00 pm91 °FSunny.16 mph32%29.89 "Hg10 mi
5:30 pm91 °FSunny.16 mph30%29.89 "Hg10 mi
5:00 pm91 °FSunny.12 mph30%29.89 "Hg10 mi
4:30 pm91 °FSunny.10 mph32%29.89 "Hg10 mi
4:00 pm93 °FSunny.10 mph30%29.89 "Hg10 mi
3:30 pm93 °FSunny.16 mph30%29.89 "Hg10 mi
3:00 pm91 °FSunny.12 mph32%29.89 "Hg10 mi
2:30 pm90 °FSunny.13 mph31%29.89 "Hg10 mi
2:00 pm90 °FSunny.14 mph31%29.92 "Hg10 mi
1:30 pm88 °FSunny.15 mph31%29.89 "Hg10 mi
1:00 pm86 °FPleasantly warm.18 mph27%29.92 "Hg5 mi
12:30 pm84 °FPleasantly warm.12 mph31%29.95 "Hg5 mi
12:00 pm82 °FPleasantly warm.18 mph28%29.98 "Hg5 mi
11:30 am81 °FPleasantly warm.14 mph30%29.98 "Hg5 mi
11:00 am79 °FSunny.15 mph26%29.98 "Hg10 mi
10:30 am77 °FSunny.15 mph28%30.01 "Hg10 mi
10:00 am73 °FSunny.13 mph27%30.01 "Hg10 mi
9:30 am73 °FSunny.15 mph27%30.01 "Hg10 mi
9:00 am70 °FMild.13 mph29%30.04 "Hg5 mi
8:30 am70 °FMild.13 mph29%30.01 "Hg5 mi
8:00 am68 °FMild.13 mph30%30.01 "Hg5 mi
7:30 am68 °FSunny.12 mph35%30.01 "Hg10 mi
7:00 am68 °FClear.10 mph35%29.98 "Hg10 mi
Weather by CustomWeather, © 2016

See weather overviewHow to use our weather pages